STARLINK-32927, 63094

Orbit data source: Space-Track

STARLINK-32927, 63094 is a payload satellite owned by SpaceX/Seattle (US) in LEO that was launched on Sun, 23 Feb 2025 UTC via an FALCON 9 launch vehicle from the Air Force Western Test Range (AFWTR). Payload-class satellites include a variety of spacecraft equipped with specific instruments for various scientific and technological missions. These include communications satellites like Starlink; space stations such as the ISS; scientific satellites like the Hubble; Earth observation satellites from companies like Planet Labs, Umbra, and HawkEye 360; GPS; miniature CubeSats for education and research; and military/defense satellites.

Loading next visibility...
Identifier
63094, 2025-037T
Orbit
LEO
Country
Flag of USUS
Related business
Manufacturer
SpaceX/Seattle
Mission
Operational Commercial Communications
Bus & Motor
STARLINK V2M, Unknown motor
Mass
730 kg wet, ~700 kg dry
Launch date (UTC)
2025-02-23 (1 year ago)
Launch vehicle
FALCON 9
Launch site
Air Force Western Test Range (AFWTR)
Object type
Payload
Rocket body
Debris
Shape & HBR
Box + 2 Pan, 17.7 m
Radar Cross Section
33.884 m², Large (>1 m²)

Expand to show TLE details & history
Last TLE update: 16 hours ago

TLE from 16 hours ago
0 STARLINK-32927
1 63094U 25037T   26171.19956419  .00004376  00000-0  37426-3 0  9995
2 63094  70.0016  96.1317 0002952 254.0713 106.0121 14.98338827 73908
Epoch: 2026-06-20T04:47Z
TLE epoch observation values (Epoch: 2026-06-20T04:47:22.346Z)
Latitude
0.00001°
Longitude
115.87098°
Altitude
575.019 km
Speed
7.573 km/s
True Right ascension
06h 24m 31s
True Declination
0° 00' 00"
Sunlit
Object was in daylight at epoch
Visualization orbit readout
Latitude
Unknown
Longitude
Unknown
Altitude
Unknown
Speed
Unknown
Apparent Right ascension
Unknown
Apparent Declination
Unknown
Sunlit
N/A
Visualization observer readout
Local Sidereal Time
07:17:59
Azimuth
Unknown
Elevation
Unknown
Doppler factor
Unknown
Orbital elements
Apogee altitude
572.028 km
Perigee altitude
567.926 km
Semi-major axis
6,948.114 km
Eccentricity
0.0003
Inclination
70.0016°
RAAN
96.1317°
Arg. of periapsis
254.0713°
True anomaly
106.04461°
Mean anomaly
106.0121°
Eccentric anomaly
106.02836°
Mean motion
3.74751 °/min
Orbital period
96.06 mins
BSTAR
0.00037426
Loading maneuver chart data...
Computing Atmospheric mass density...
Loading historical data...
Loading historical data...
Loading historical data...
Loading historical data...
Loading historical data...
Loading historical data...
Loading historical data...

Documentation

Showing up to 5 results
|